Weather History for 08451 - August, 2013

Change the Weather History Date:

Friday, August 16, 2013

  Actual Average Record
Temperature  
Mean Temperature 84 °F -  
Max Temperature 100 °F 85 °F - ()
Min Temperature 67 °F 61 °F - ()
Cooling Degree Days 18    
Growing Degree Days 34 (Base 50)    
Moisture  
Dew Point 58 °F    
Average Humidity 44    
Maximum Humidity 83    
Minimum Humidity 17    
Precipitation  
Precipitation 0.00 in 0.02 in - ()
Sea Level Pressure  
Sea Level Pressure 30.00 in    
Wind  
Wind Speed 3 mph ()    
Max Wind Speed 13 mph    
Max Gust Speed 24 mph    
Visibility 8.8 miles    
Events      
T = Trace of Precipitation, MM = Missing Value Source: Averaged Metar Reports

Daily Weather History Graph

Daily Weather History Graph

Search for Another Location

Airport or City:

Trip Planner

Search our weather history database for the weather conditions in past years. The results will help you decide how hot, cold, wet, or windy it might be!

Date:

Astronomy

Aug. 16, 2013 Rise Set
Actual Time 7:42 AM CEST 9:14 PM CEST
Civil Twilight 7:14 AM CEST 9:41 PM CEST
Nautical Twilight 6:41 AM CEST 10:14 PM CEST
Astronomical Twilight 6:07 AM CEST 10:48 PM CEST
Moon 5:16 PM CEST (8/16) 2:34 AM CEST (8/16)
Length of Visible Light 14h 26m
Length of Day
13h 31m
Waxing Gibbous, 72% of the Moon is Illuminated
Aug 16
Waxing Gibbous
Aug 21
Full
Aug 28
Last Quarter
Sep 5
New
Sep 12
First Quarter

Hourly Weather History & Observations

Time (CEST) Temp. Heat Index Dew Point Humidity Pressure Visibility Wind Dir Wind Speed Gust Speed Precip Events Conditions
2:00 AM 74 °F - 64 °F 62% 30.03 in 19 mi West 3.5 mph - -  
5:00 AM 68.0 °F - 62.6 °F 83% 30.01 in 6.2 mi Variable 2.3 mph - N/A   Partly Cloudy
5:30 AM 68.0 °F - 62.6 °F 83% 30.01 in 6.2 mi Variable 2.3 mph - N/A   Partly Cloudy
6:00 AM 68.0 °F - 62.6 °F 83% 30.01 in 6.2 mi Variable 2.3 mph - N/A   Partly Cloudy
6:30 AM 68.0 °F - 62.6 °F 83% 30.01 in 6.2 mi Variable 1.2 mph - N/A   Partly Cloudy
7:00 AM 69.8 °F - 62.6 °F 78% 30.01 in - NW 3.5 mph - N/A   Clear
7:30 AM 69.8 °F - 62.6 °F 78% 30.01 in - Variable 1.2 mph - N/A   Clear
8:00 AM 70 °F - 62 °F 69% 30.02 in 28 mi NNE 1.2 mph - -  
8:00 AM 69.8 °F - 62.6 °F 78% 30.01 in - Variable 1.2 mph - N/A   Clear
8:30 AM 68.0 °F - 62.6 °F 83% 30.01 in - Calm Calm - N/A   Clear
9:00 AM 71.6 °F - 64.4 °F 78% 30.04 in - Calm Calm - N/A   Clear
9:30 AM 77.0 °F - 64.4 °F 65% 30.04 in - Calm Calm - N/A   Clear
10:00 AM 80.6 °F 82.3 °F 64.4 °F 58% 30.04 in - Calm Calm - N/A   Clear
10:30 AM 82.4 °F 83.4 °F 62.6 °F 51% 30.04 in - Variable 1.2 mph - N/A   Clear
11:00 AM 86.0 °F 86.6 °F 62.6 °F 45% 30.04 in - Variable 1.2 mph - N/A   Clear
11:30 AM 87.8 °F 87.1 °F 59.0 °F 38% 30.04 in - Variable 1.2 mph - N/A   Clear
12:00 PM 91.4 °F 90.7 °F 59.0 °F 34% 30.04 in - Variable 1.2 mph - N/A   Clear
12:30 PM 91.4 °F 90.7 °F 59.0 °F 34% 30.04 in - Variable 1.2 mph - N/A   Clear
1:00 PM 93.2 °F 92.6 °F 59.0 °F 32% 30.04 in - Variable 2.3 mph - N/A   Clear
1:30 PM 95.0 °F 94.4 °F 59.0 °F 30% 30.01 in - Variable 3.5 mph - N/A   Clear
2:00 PM 98 °F - 58 °F 17% 30.01 in 25 mi ESE 4.6 mph - -  
2:00 PM 96.8 °F 96.2 °F 59.0 °F 28% 30.01 in - ESE 4.6 mph - N/A   Clear
2:30 PM 98.6 °F 97.2 °F 55.4 °F 24% 30.01 in - Variable 2.3 mph - N/A   Clear
3:00 PM 98.6 °F 97.2 °F 55.4 °F 24% 29.98 in - ESE 3.5 mph - N/A   Clear
3:30 PM 98.6 °F 97.2 °F 55.4 °F 24% 29.98 in - Variable 1.2 mph - N/A   Clear
4:00 PM 100.4 °F 98.8 °F 55.4 °F 22% 29.98 in - Variable 3.5 mph - N/A   Clear
4:30 PM 98.6 °F - 51.8 °F 21% 29.95 in - West 11.5 mph - N/A   Clear
5:00 PM 100.4 °F - 50.0 °F 18% 29.95 in - West 11.5 mph 24.2 mph N/A   Clear
5:30 PM 100.4 °F - 48.2 °F 17% 29.95 in - West 8.1 mph - N/A   Clear
6:00 PM 98.6 °F - 50.0 °F 19% 29.95 in - West 11.5 mph - N/A   Clear
6:30 PM 96.8 °F - 50.0 °F 20% 29.95 in - West 11.5 mph - N/A   Clear
7:00 PM 96.8 °F - 48.2 °F 19% 29.95 in - West 11.5 mph - N/A   Clear
7:30 PM 95.0 °F - 48.2 °F 20% 29.95 in - WSW 12.7 mph - N/A   Clear
8:00 PM 93.2 °F - 51.8 °F 24% 29.95 in - WSW 11.5 mph - N/A   Clear
8:30 PM 89.6 °F - 51.8 °F 27% 29.98 in - WSW 11.5 mph - N/A   Clear
9:00 PM 87.8 °F 86.1 °F 55.4 °F 33% 29.98 in - SW 8.1 mph - N/A   Clear
9:30 PM 86.0 °F 84.2 °F 53.6 °F 33% 29.98 in - WSW 9.2 mph - N/A   Clear
10:00 PM 84.2 °F 83.0 °F 55.4 °F 37% 30.01 in - WSW 8.1 mph - N/A   Clear
10:30 PM 78.8 °F - 57.2 °F 47% 30.01 in - SSW 3.5 mph - N/A   Clear
11:00 PM 78.8 °F - 59.0 °F 51% 30.01 in - South 3.5 mph - N/A   Clear